SWA4692 KSAN-KDEN

Flight info

Callsign SWA4692
Flight time 1h 57m
Altitude 35000
Route ZZOOO4 MTBAL EED J236 TBC CRUDD TBARR4
Aircraft B738/M-SDE2E3FGHIRWXY/LB1

Departure

Time 2026-05-08 01:38
Airport San Diego International Airport (KSAN)

Arrival

Time 2026-05-08 03:35
Airport Denver International Airport (KDEN)
Time Latitude Longitude Altitude Speed Heading
2026-05-08 01:11 32.73338 -117.19777 21 ft 0 kts 282°
2026-05-08 01:26 32.73338 -117.19753 21 ft 4 kts 245°
2026-05-08 01:26 32.73346 -117.19733 21 ft 4 kts 279°
2026-05-08 01:26 32.73338 -117.19721 21 ft 4 kts 12°
2026-05-08 01:26 32.73315 -117.19729 21 ft 1 kts 18°
2026-05-08 01:27 32.73314 -117.19730 21 ft 0 kts 18°
2026-05-08 01:30 32.73315 -117.19729 21 ft 0 kts 18°
2026-05-08 01:31 32.73317 -117.19729 23 ft 2 kts 18°
2026-05-08 01:31 32.73354 -117.19714 22 ft 8 kts 20°
2026-05-08 01:31 32.73403 -117.19688 22 ft 8 kts 44°
2026-05-08 01:31 32.73412 -117.19627 22 ft 8 kts 102°
2026-05-08 01:32 32.73395 -117.19552 22 ft 11 kts 105°
2026-05-08 01:32 32.73371 -117.19458 24 ft 13 kts 107°
2026-05-08 01:32 32.73347 -117.19354 21 ft 13 kts 107°
2026-05-08 01:32 32.73323 -117.19254 21 ft 12 kts 106°
2026-05-08 01:33 32.73299 -117.19156 23 ft 12 kts 105°
2026-05-08 01:33 32.73276 -117.19061 22 ft 12 kts 107°
2026-05-08 01:33 32.73251 -117.18958 22 ft 15 kts 106°
2026-05-08 01:33 32.73219 -117.18829 22 ft 17 kts 106°
2026-05-08 01:34 32.73186 -117.18692 22 ft 17 kts 106°
2026-05-08 01:34 32.73154 -117.18560 21 ft 16 kts 106°
2026-05-08 01:34 32.73124 -117.18434 21 ft 16 kts 106°
2026-05-08 01:34 32.73094 -117.18312 21 ft 15 kts 106°
2026-05-08 01:35 32.73066 -117.18195 21 ft 14 kts 105°
2026-05-08 01:35 32.73037 -117.18078 21 ft 18 kts 106°
2026-05-08 01:35 32.73002 -117.17935 20 ft 18 kts 106°
2026-05-08 01:35 32.72968 -117.17798 22 ft 14 kts 107°
2026-05-08 01:36 32.72947 -117.17722 20 ft 7 kts 97°
2026-05-08 01:36 32.72951 -117.17699 20 ft 0 kts 74°
2026-05-08 01:37 32.72964 -117.17648 20 ft 14 kts 71°
2026-05-08 01:37 32.73032 -117.17626 20 ft 6 kts 284°
2026-05-08 01:37 32.73032 -117.17627 20 ft 0 kts 284°
2026-05-08 01:37 32.73039 -117.17655 20 ft 24 kts 285°
2026-05-08 01:38 32.73163 -117.18177 21 ft 105 kts 286°
2026-05-08 01:38 32.73429 -117.19275 68 ft 166 kts 286°
2026-05-08 01:38 32.73814 -117.20682 695 ft 188 kts 288°
2026-05-08 01:38 32.74218 -117.22209 1613 ft 197 kts 285°
2026-05-08 01:39 32.74573 -117.23790 2544 ft 200 kts 286°
2026-05-08 01:39 32.74941 -117.25405 3261 ft 209 kts 286°
2026-05-08 01:39 32.75355 -117.27164 3499 ft 231 kts 287°
2026-05-08 01:39 32.75798 -117.29027 4052 ft 238 kts 287°
2026-05-08 01:40 32.76253 -117.30922 4881 ft 237 kts 287°
2026-05-08 01:40 32.76523 -117.32849 5660 ft 242 kts 267°
2026-05-08 01:40 32.76007 -117.34775 6376 ft 250 kts 241°
2026-05-08 01:40 32.74814 -117.36310 7063 ft 260 kts 216°
2026-05-08 01:41 32.73115 -117.37101 7692 ft 270 kts 187°
2026-05-08 01:41 32.71254 -117.36837 8388 ft 274 kts 156°
2026-05-08 01:41 32.69719 -117.35541 9141 ft 272 kts 130°
2026-05-08 01:41 32.68570 -117.33774 9936 ft 271 kts 122°
2026-05-08 01:42 32.67499 -117.31917 10639 ft 273 kts 122°
2026-05-08 01:42 32.66431 -117.30078 11309 ft 275 kts 122°
2026-05-08 01:42 32.65325 -117.28214 12009 ft 277 kts 122°
2026-05-08 01:42 32.64203 -117.26345 12701 ft 279 kts 123°
2026-05-08 01:43 32.63200 -117.24381 13369 ft 279 kts 105°
2026-05-08 01:43 32.62858 -117.22080 13712 ft 293 kts 94°
2026-05-08 01:43 32.62661 -117.19591 13874 ft 314 kts 93°
2026-05-08 01:43 32.62442 -117.16924 14043 ft 335 kts 94°
2026-05-08 01:44 32.62197 -117.14095 14179 ft 354 kts 94°
2026-05-08 01:44 32.61998 -117.11112 14293 ft 371 kts 86°
2026-05-08 01:44 32.62544 -117.08090 14450 ft 382 kts 68°
2026-05-08 01:44 32.63559 -117.05142 14868 ft 387 kts 67°
2026-05-08 01:45 32.64569 -117.02163 15367 ft 390 kts 67°
2026-05-08 01:45 32.65562 -116.99156 15901 ft 393 kts 68°
2026-05-08 01:45 32.66508 -116.96102 16399 ft 397 kts 73°
2026-05-08 01:45 32.66826 -116.92832 16864 ft 403 kts 87°
2026-05-08 01:46 32.67211 -116.89557 17330 ft 403 kts 69°
2026-05-08 01:46 32.68649 -116.86719 17827 ft 404 kts 46°
2026-05-08 01:46 32.70918 -116.84790 18411 ft 403 kts 27°
2026-05-08 01:46 32.73407 -116.83245 18867 ft 405 kts 30°
2026-05-08 01:47 32.75820 -116.81491 19248 ft 409 kts 33°
2026-05-08 01:47 32.78157 -116.79608 19648 ft 412 kts 35°
2026-05-08 01:47 32.80516 -116.77584 20085 ft 414 kts 36°
2026-05-08 01:48 32.85140 -116.73427 20894 ft 419 kts 37°
2026-05-08 01:48 32.87431 -116.71332 21278 ft 422 kts 37°
2026-05-08 01:48 32.89769 -116.69192 21669 ft 425 kts 37°
2026-05-08 01:48 32.92114 -116.67045 22075 ft 427 kts 37°
2026-05-08 01:49 32.94477 -116.64882 22451 ft 429 kts 37°
2026-05-08 01:49 32.96852 -116.62710 22792 ft 432 kts 37°
2026-05-08 01:49 32.99246 -116.60522 23140 ft 435 kts 37°
2026-05-08 01:49 33.01654 -116.58322 23500 ft 437 kts 37°
2026-05-08 01:50 33.03254 -116.56858 23704 ft 439 kts 37°
2026-05-08 01:50 33.05671 -116.54644 24144 ft 436 kts 37°
2026-05-08 01:50 33.08074 -116.52442 24499 ft 436 kts 37°
2026-05-08 01:50 33.10493 -116.50225 24680 ft 440 kts 37°
2026-05-08 01:51 33.12929 -116.47991 24982 ft 441 kts 37°
2026-05-08 01:51 33.15365 -116.45755 25271 ft 443 kts 37°
2026-05-08 01:51 33.17815 -116.43504 25557 ft 445 kts 37°
2026-05-08 01:51 33.20271 -116.41246 25870 ft 446 kts 37°
2026-05-08 01:52 33.22739 -116.38974 26144 ft 448 kts 37°
2026-05-08 01:52 33.25209 -116.36700 26395 ft 449 kts 37°
2026-05-08 01:52 33.27693 -116.34411 26607 ft 452 kts 37°
2026-05-08 01:52 33.30184 -116.32112 26879 ft 453 kts 37°
2026-05-08 01:53 33.32647 -116.29829 27086 ft 455 kts 37°
2026-05-08 01:53 33.35161 -116.27504 27283 ft 458 kts 37°
2026-05-08 01:53 33.37681 -116.25180 27581 ft 457 kts 37°
2026-05-08 01:53 33.40184 -116.22867 28107 ft 452 kts 37°
2026-05-08 01:54 33.42655 -116.20573 28583 ft 449 kts 37°
2026-05-08 01:54 33.45135 -116.18286 28895 ft 449 kts 37°
2026-05-08 01:54 33.47619 -116.15992 29160 ft 451 kts 37°
2026-05-08 01:54 33.50094 -116.13694 29498 ft 451 kts 37°
2026-05-08 01:55 33.52570 -116.11391 29906 ft 449 kts 37°
2026-05-08 01:55 33.55030 -116.09103 30268 ft 447 kts 37°
2026-05-08 01:55 33.57487 -116.06819 30574 ft 447 kts 37°
2026-05-08 01:55 33.59930 -116.04521 30850 ft 447 kts 39°
2026-05-08 01:56 33.62187 -116.01940 31127 ft 448 kts 46°
2026-05-08 01:56 33.64277 -115.99181 31530 ft 445 kts 47°
2026-05-08 01:56 33.66330 -115.96413 31913 ft 442 kts 47°
2026-05-08 01:56 33.68374 -115.93648 32188 ft 443 kts 47°
2026-05-08 01:57 33.70429 -115.90880 32412 ft 443 kts 46°
2026-05-08 01:57 33.72487 -115.88124 32712 ft 442 kts 46°
2026-05-08 01:57 33.74513 -115.85420 33039 ft 441 kts 46°
2026-05-08 01:57 33.76570 -115.82685 33329 ft 440 kts 46°
2026-05-08 01:58 33.78633 -115.79944 33599 ft 440 kts 46°
2026-05-08 01:58 33.80686 -115.77218 33883 ft 439 kts 46°
2026-05-08 01:58 33.82732 -115.74500 34136 ft 439 kts 46°
2026-05-08 01:58 33.84782 -115.71779 34369 ft 438 kts 46°
2026-05-08 01:59 33.86828 -115.69064 34608 ft 438 kts 46°
2026-05-08 01:59 33.88872 -115.66346 34827 ft 438 kts 46°
2026-05-08 01:59 33.92981 -115.60871 34864 ft 442 kts 46°
2026-05-08 02:00 33.97069 -115.55408 34862 ft 440 kts 46°
2026-05-08 02:00 34.01147 -115.49950 34851 ft 437 kts 46°
2026-05-08 02:01 34.05195 -115.44525 34849 ft 434 kts 46°
2026-05-08 02:01 34.09253 -115.39078 34841 ft 433 kts 46°
2026-05-08 02:02 34.13255 -115.33698 34836 ft 433 kts 46°
2026-05-08 02:02 34.17281 -115.28275 34837 ft 433 kts 46°
2026-05-08 02:03 34.21296 -115.22860 34829 ft 432 kts 46°
2026-05-08 02:03 34.25311 -115.17437 34827 ft 432 kts 46°
2026-05-08 02:04 34.29311 -115.12026 34825 ft 431 kts 46°
2026-05-08 02:04 34.33304 -115.06618 34827 ft 431 kts 46°
2026-05-08 02:05 34.37293 -115.01207 34822 ft 430 kts 46°
2026-05-08 02:05 34.41272 -114.95798 34813 ft 430 kts 46°
2026-05-08 02:06 34.45254 -114.90378 34813 ft 430 kts 46°
2026-05-08 02:06 34.49238 -114.84947 34822 ft 431 kts 46°
2026-05-08 02:07 34.53222 -114.79507 34826 ft 432 kts 47°
2026-05-08 02:07 34.57184 -114.74089 34830 ft 432 kts 47°
2026-05-08 02:08 34.61172 -114.68626 34832 ft 433 kts 47°
2026-05-08 02:08 34.65166 -114.63146 34832 ft 433 kts 47°
2026-05-08 02:09 34.69171 -114.57641 34859 ft 435 kts 47°
2026-05-08 02:09 34.73180 -114.52122 34851 ft 436 kts 47°
2026-05-08 02:10 34.77063 -114.46441 34838 ft 438 kts 55°
2026-05-08 02:10 34.80021 -114.39936 34828 ft 441 kts 60°
2026-05-08 02:11 34.82864 -114.33370 34804 ft 441 kts 60°
2026-05-08 02:11 34.85739 -114.26772 34795 ft 441 kts 59°
2026-05-08 02:12 34.88644 -114.20151 34813 ft 440 kts 59°
2026-05-08 02:12 34.91513 -114.13622 34801 ft 440 kts 59°
2026-05-08 02:13 34.94397 -114.07050 34828 ft 439 kts 59°
2026-05-08 02:13 34.97276 -114.00476 34850 ft 439 kts 60°
2026-05-08 02:14 35.00147 -113.93904 34838 ft 438 kts 59°
2026-05-08 02:14 35.03004 -113.87352 34855 ft 437 kts 60°
2026-05-08 02:15 35.05860 -113.80790 34856 ft 437 kts 59°
2026-05-08 02:15 35.08705 -113.74239 34863 ft 436 kts 59°
2026-05-08 02:16 35.11545 -113.67688 34865 ft 436 kts 59°
2026-05-08 02:16 35.14376 -113.61147 34874 ft 435 kts 59°
2026-05-08 02:17 35.17199 -113.54608 34881 ft 435 kts 59°
2026-05-08 02:17 35.19999 -113.48110 34911 ft 433 kts 59°
2026-05-08 02:18 35.22814 -113.41570 34907 ft 434 kts 59°
2026-05-08 02:18 35.25627 -113.35018 34914 ft 435 kts 59°
2026-05-08 02:19 35.28419 -113.28503 34908 ft 436 kts 59°
2026-05-08 02:19 35.31234 -113.21921 34925 ft 436 kts 59°
2026-05-08 02:20 35.34051 -113.15321 34923 ft 437 kts 59°
2026-05-08 02:20 35.36865 -113.08715 34947 ft 437 kts 59°
2026-05-08 02:21 35.39677 -113.02101 34935 ft 438 kts 59°
2026-05-08 02:21 35.42472 -112.95514 34938 ft 437 kts 59°
2026-05-08 02:22 35.45289 -112.88860 34943 ft 437 kts 60°
2026-05-08 02:22 35.48068 -112.82286 34947 ft 436 kts 60°
2026-05-08 02:23 35.50858 -112.75671 34963 ft 436 kts 59°
2026-05-08 02:23 35.53645 -112.69049 34960 ft 436 kts 59°
2026-05-08 02:24 35.56423 -112.62438 34966 ft 436 kts 59°
2026-05-08 02:24 35.59200 -112.55814 34975 ft 436 kts 59°
2026-05-08 02:25 35.61974 -112.49185 34978 ft 436 kts 60°
2026-05-08 02:25 35.64742 -112.42558 34999 ft 436 kts 59°
2026-05-08 02:26 35.67513 -112.35908 34998 ft 437 kts 60°
2026-05-08 02:26 35.70262 -112.29299 35015 ft 437 kts 60°
2026-05-08 02:27 35.73023 -112.22646 35021 ft 437 kts 60°
2026-05-08 02:27 35.75788 -112.15973 35026 ft 437 kts 60°
2026-05-08 02:28 35.78546 -112.09300 35033 ft 437 kts 60°
2026-05-08 02:28 35.81302 -112.02621 35028 ft 437 kts 60°
2026-05-08 02:29 35.84057 -111.95929 35025 ft 437 kts 60°
2026-05-08 02:29 35.86805 -111.89239 35083 ft 437 kts 60°
2026-05-08 02:30 35.89554 -111.82536 35054 ft 437 kts 60°
2026-05-08 02:30 35.92293 -111.75843 35007 ft 438 kts 59°
2026-05-08 02:31 35.95019 -111.69166 34969 ft 438 kts 59°
2026-05-08 02:31 35.97758 -111.62444 34969 ft 438 kts 59°
2026-05-08 02:32 36.00492 -111.55721 34970 ft 438 kts 60°
2026-05-08 02:32 36.03228 -111.48978 34951 ft 438 kts 60°
2026-05-08 02:33 36.05948 -111.42259 34949 ft 438 kts 60°
2026-05-08 02:33 36.08656 -111.35554 34946 ft 437 kts 60°
2026-05-08 02:34 36.11368 -111.28829 34944 ft 437 kts 60°
2026-05-08 02:34 36.13699 -111.23232 34944 ft 436 kts 58°
2026-05-08 02:35 36.16671 -111.16750 34941 ft 435 kts 57°
2026-05-08 02:35 36.19692 -111.10236 34939 ft 436 kts 57°
2026-05-08 02:36 36.22621 -111.03831 34944 ft 436 kts 57°
2026-05-08 02:36 36.25462 -110.97558 34941 ft 437 kts 57°
2026-05-08 02:37 36.28432 -110.90971 34943 ft 438 kts 57°
2026-05-08 02:37 36.31395 -110.84384 34951 ft 438 kts 57°
2026-05-08 02:38 36.34368 -110.77760 34938 ft 440 kts 57°
2026-05-08 02:38 36.37349 -110.71111 34958 ft 441 kts 57°
2026-05-08 02:39 36.40328 -110.64449 34953 ft 442 kts 57°
2026-05-08 02:39 36.43315 -110.57756 34961 ft 443 kts 57°
2026-05-08 02:40 36.46284 -110.51093 34959 ft 444 kts 57°
2026-05-08 02:40 36.49274 -110.44365 34977 ft 445 kts 57°
2026-05-08 02:41 36.52261 -110.37633 34968 ft 445 kts 57°
2026-05-08 02:41 36.55250 -110.30880 34967 ft 445 kts 57°
2026-05-08 02:42 36.58231 -110.24134 34965 ft 445 kts 57°
2026-05-08 02:42 36.61209 -110.17381 34969 ft 445 kts 57°
2026-05-08 02:43 36.64182 -110.10624 34958 ft 445 kts 57°
2026-05-08 02:43 36.67152 -110.03865 34952 ft 445 kts 57°
2026-05-08 02:44 36.70114 -109.97107 34955 ft 444 kts 57°
2026-05-08 02:44 36.73054 -109.90385 34953 ft 444 kts 57°
2026-05-08 02:45 36.76009 -109.83621 34954 ft 444 kts 57°
2026-05-08 02:45 36.78955 -109.76848 34952 ft 444 kts 57°
2026-05-08 02:46 36.81906 -109.70054 34957 ft 445 kts 57°
2026-05-08 02:46 36.84851 -109.63264 34959 ft 445 kts 57°
2026-05-08 02:47 36.87779 -109.56499 34965 ft 446 kts 57°
2026-05-08 02:47 36.90730 -109.49667 34968 ft 447 kts 57°
2026-05-08 02:48 36.93674 -109.42825 34975 ft 447 kts 57°
2026-05-08 02:48 36.96619 -109.35967 34975 ft 448 kts 57°
2026-05-08 02:49 36.99573 -109.29082 34978 ft 449 kts 57°
2026-05-08 02:49 37.02530 -109.22189 34972 ft 449 kts 57°
2026-05-08 02:50 37.05484 -109.15297 34981 ft 449 kts 57°
2026-05-08 02:50 37.08410 -109.08438 34997 ft 449 kts 57°
2026-05-08 02:51 37.11350 -109.01525 34990 ft 449 kts 57°
2026-05-08 02:51 37.14289 -108.94603 34983 ft 449 kts 57°
2026-05-08 02:52 37.17223 -108.87681 34988 ft 449 kts 57°
2026-05-08 02:52 37.20149 -108.80759 34975 ft 449 kts 57°
2026-05-08 02:53 37.23074 -108.73831 35005 ft 449 kts 57°
2026-05-08 02:53 37.25994 -108.66895 35017 ft 450 kts 57°
2026-05-08 02:54 37.28906 -108.59964 35112 ft 452 kts 57°
2026-05-08 02:54 37.31836 -108.52973 35107 ft 453 kts 57°
2026-05-08 02:55 37.36242 -108.42432 35105 ft 454 kts 57°
2026-05-08 02:56 37.39177 -108.35392 35069 ft 455 kts 57°
2026-05-08 02:56 37.42110 -108.28340 35075 ft 455 kts 57°
2026-05-08 02:57 37.43402 -108.25228 35060 ft 455 kts 57°
2026-05-08 02:57 37.46317 -108.18199 35066 ft 455 kts 57°
2026-05-08 02:58 37.49238 -108.11134 35069 ft 456 kts 57°
2026-05-08 02:58 37.52177 -108.04018 35068 ft 458 kts 57°
2026-05-08 02:59 37.55113 -107.96885 35106 ft 460 kts 57°
2026-05-08 02:59 37.58056 -107.89725 35095 ft 461 kts 57°
2026-05-08 03:00 37.60993 -107.82561 35108 ft 462 kts 57°
2026-05-08 03:00 37.63940 -107.75355 35114 ft 462 kts 57°
2026-05-08 03:01 37.66882 -107.68143 35121 ft 463 kts 57°
2026-05-08 03:01 37.69823 -107.60913 35136 ft 463 kts 57°
2026-05-08 03:02 37.72760 -107.53682 35142 ft 463 kts 57°
2026-05-08 03:02 37.75950 -107.46683 35164 ft 453 kts 46°
2026-05-08 03:03 37.80116 -107.40773 35164 ft 449 kts 41°
2026-05-08 03:03 37.84365 -107.34976 35187 ft 449 kts 41°
2026-05-08 03:04 37.88555 -107.29184 35178 ft 449 kts 42°
2026-05-08 03:04 37.92762 -107.23298 35173 ft 450 kts 42°
2026-05-08 03:05 37.96964 -107.17389 35163 ft 451 kts 42°
2026-05-08 03:05 38.01167 -107.11465 35165 ft 452 kts 42°
2026-05-08 03:06 38.05380 -107.05518 35159 ft 454 kts 42°
2026-05-08 03:06 38.09579 -106.99579 35166 ft 455 kts 42°
2026-05-08 03:07 38.13809 -106.93584 35150 ft 456 kts 42°
2026-05-08 03:07 38.18036 -106.87582 35143 ft 456 kts 42°
2026-05-08 03:08 38.22274 -106.81557 35151 ft 456 kts 42°
2026-05-08 03:08 38.26500 -106.75535 35150 ft 457 kts 42°
2026-05-08 03:09 38.30737 -106.69485 35147 ft 457 kts 42°
2026-05-08 03:09 38.34967 -106.63436 35157 ft 458 kts 42°
2026-05-08 03:10 38.39183 -106.57395 35165 ft 459 kts 41°
2026-05-08 03:10 38.43424 -106.51307 35134 ft 460 kts 42°
2026-05-08 03:11 38.47678 -106.45186 35114 ft 460 kts 42°
2026-05-08 03:11 38.51926 -106.39065 35122 ft 460 kts 42°
2026-05-08 03:12 38.56172 -106.32930 35131 ft 461 kts 42°
2026-05-08 03:12 38.58305 -106.29849 34698 ft 467 kts 42°
2026-05-08 03:12 38.60456 -106.26734 34146 ft 466 kts 42°
2026-05-08 03:12 38.62610 -106.23616 33420 ft 467 kts 42°
2026-05-08 03:13 38.64760 -106.20501 32727 ft 467 kts 43°
2026-05-08 03:13 38.66912 -106.17381 32011 ft 467 kts 43°
2026-05-08 03:13 38.69064 -106.14253 31378 ft 468 kts 43°
2026-05-08 03:13 38.71215 -106.11120 30664 ft 469 kts 43°
2026-05-08 03:14 38.73349 -106.08011 29831 ft 472 kts 43°
2026-05-08 03:14 38.75511 -106.04857 29165 ft 469 kts 44°
2026-05-08 03:14 38.77652 -106.01728 28582 ft 465 kts 44°
2026-05-08 03:14 38.79773 -105.98626 28019 ft 461 kts 44°
2026-05-08 03:15 38.81877 -105.95547 27442 ft 457 kts 44°
2026-05-08 03:15 38.83961 -105.92497 26719 ft 453 kts 44°
2026-05-08 03:15 38.86027 -105.89471 26180 ft 449 kts 44°
2026-05-08 03:15 38.88071 -105.86474 25646 ft 446 kts 44°
2026-05-08 03:16 38.90110 -105.83482 25114 ft 443 kts 44°
2026-05-08 03:16 38.92134 -105.80510 24558 ft 441 kts 44°
2026-05-08 03:16 38.94148 -105.77549 23984 ft 439 kts 44°
2026-05-08 03:16 38.96154 -105.74598 23444 ft 437 kts 44°
2026-05-08 03:17 38.98149 -105.71659 22822 ft 435 kts 44°
2026-05-08 03:17 39.00126 -105.68742 22261 ft 431 kts 44°
2026-05-08 03:17 39.02084 -105.65851 21715 ft 427 kts 44°
2026-05-08 03:17 39.04023 -105.62984 21194 ft 423 kts 45°
2026-05-08 03:18 39.05940 -105.60146 20680 ft 419 kts 45°
2026-05-08 03:18 39.07844 -105.57329 20241 ft 414 kts 45°
2026-05-08 03:18 39.09701 -105.54574 20102 ft 401 kts 45°
2026-05-08 03:18 39.11504 -105.51898 19919 ft 390 kts 45°
2026-05-08 03:19 39.13254 -105.49301 19739 ft 379 kts 45°
2026-05-08 03:19 39.14957 -105.46771 19561 ft 370 kts 45°
2026-05-08 03:19 39.16603 -105.44229 19184 ft 369 kts 47°
2026-05-08 03:19 39.18214 -105.41662 18817 ft 367 kts 47°
2026-05-08 03:20 39.19805 -105.39109 18441 ft 365 kts 47°
2026-05-08 03:20 39.21391 -105.36566 18017 ft 363 kts 47°
2026-05-08 03:20 39.22951 -105.34073 17597 ft 361 kts 47°
2026-05-08 03:20 39.24012 -105.32381 17378 ft 358 kts 46°
2026-05-08 03:21 39.25552 -105.29923 17241 ft 348 kts 46°
2026-05-08 03:21 39.27053 -105.27526 17058 ft 340 kts 47°
2026-05-08 03:21 39.28369 -105.25025 16867 ft 338 kts 63°
2026-05-08 03:21 39.28941 -105.22097 16671 ft 336 kts 78°
2026-05-08 03:22 39.29285 -105.19114 16412 ft 334 kts 79°
2026-05-08 03:22 39.29609 -105.16140 16176 ft 334 kts 79°
2026-05-08 03:22 39.29936 -105.13167 15928 ft 335 kts 78°
2026-05-08 03:22 39.30274 -105.10189 15697 ft 335 kts 78°
2026-05-08 03:23 39.30619 -105.07211 15441 ft 335 kts 78°
2026-05-08 03:23 39.30966 -105.04247 15199 ft 331 kts 78°
2026-05-08 03:23 39.31307 -105.01324 14959 ft 327 kts 78°
2026-05-08 03:23 39.31707 -104.98497 14746 ft 321 kts 73°
2026-05-08 03:24 39.32236 -104.95720 14526 ft 316 kts 72°
2026-05-08 03:24 39.32774 -104.92976 14309 ft 313 kts 72°
2026-05-08 03:24 39.33293 -104.90258 14100 ft 311 kts 72°
2026-05-08 03:24 39.33806 -104.87561 13864 ft 307 kts 71°
2026-05-08 03:25 39.34429 -104.84935 13567 ft 305 kts 67°
2026-05-08 03:25 39.35106 -104.82334 13256 ft 305 kts 67°
2026-05-08 03:25 39.35776 -104.79747 12973 ft 303 kts 67°
2026-05-08 03:25 39.36478 -104.77199 12806 ft 296 kts 64°
2026-05-08 03:26 39.37214 -104.74753 12683 ft 289 kts 64°
2026-05-08 03:26 39.37937 -104.72370 12632 ft 281 kts 64°
2026-05-08 03:26 39.38737 -104.70122 12516 ft 269 kts 47°
2026-05-08 03:26 39.40062 -104.68536 12479 ft 255 kts 28°
2026-05-08 03:27 39.41548 -104.67308 12375 ft 253 kts 25°
2026-05-08 03:27 39.43141 -104.66508 12250 ft 241 kts 358°
2026-05-08 03:27 39.44801 -104.66490 12220 ft 240 kts 354°
2026-05-08 03:27 39.46497 -104.66485 12126 ft 246 kts 355°
2026-05-08 03:28 39.48139 -104.66470 12041 ft 246 kts 355°
2026-05-08 03:28 39.49866 -104.66452 11763 ft 253 kts 355°
2026-05-08 03:28 39.51630 -104.66434 11430 ft 254 kts 356°
2026-05-08 03:28 39.53367 -104.66412 11082 ft 250 kts 356°
2026-05-08 03:29 39.55087 -104.66390 10771 ft 244 kts 356°
2026-05-08 03:29 39.56764 -104.66369 10452 ft 238 kts 356°
2026-05-08 03:29 39.58400 -104.66349 10129 ft 232 kts 355°
2026-05-08 03:29 39.59999 -104.66330 9841 ft 227 kts 356°
2026-05-08 03:30 39.63002 -104.66289 9249 ft 203 kts 356°
2026-05-08 03:30 39.65650 -104.66258 8752 ft 178 kts 355°
2026-05-08 03:31 39.68043 -104.66234 8370 ft 172 kts 356°
2026-05-08 03:31 39.70371 -104.66205 7875 ft 161 kts 355°
2026-05-08 03:32 39.71487 -104.66191 7672 ft 158 kts 355°
2026-05-08 03:32 39.72591 -104.66179 7486 ft 160 kts 356°
2026-05-08 03:32 39.73713 -104.66166 7273 ft 162 kts 356°
2026-05-08 03:32 39.74828 -104.66152 7102 ft 156 kts 356°
2026-05-08 03:33 39.75909 -104.66139 6886 ft 157 kts 356°
2026-05-08 03:33 39.77013 -104.66129 6736 ft 160 kts 356°
2026-05-08 03:33 39.78129 -104.66124 6546 ft 159 kts 357°
2026-05-08 03:33 39.79234 -104.66101 6311 ft 159 kts 358°
2026-05-08 03:34 39.80329 -104.66097 6098 ft 155 kts 359°
2026-05-08 03:34 39.81410 -104.66107 5821 ft 154 kts
2026-05-08 03:34 39.82464 -104.66092 5574 ft 150 kts
2026-05-08 03:34 39.83479 -104.66057 5435 ft 141 kts
2026-05-08 03:35 39.84333 -104.66035 5410 ft 101 kts
2026-05-08 03:35 39.84919 -104.66023 5403 ft 60 kts
2026-05-08 03:35 39.85179 -104.66084 5395 ft 19 kts 338°
2026-05-08 03:35 39.85282 -104.66148 5394 ft 3 kts 331°
2026-05-08 03:36 39.85290 -104.66154 5397 ft 0 kts 331°
2026-05-08 03:37 39.85291 -104.66154 5397 ft 1 kts 331°
2026-05-08 03:37 39.85301 -104.66162 5397 ft 0 kts 330°
2026-05-08 03:37 39.85302 -104.66163 5390 ft 0 kts 330°
2026-05-08 03:38 39.85304 -104.66164 5390 ft 2 kts 330°
2026-05-08 03:38 39.85306 -104.66166 5391 ft 0 kts 330°
2026-05-08 03:38 39.85325 -104.66180 5393 ft 0 kts 329°
2026-05-08 03:39 39.85334 -104.66187 5390 ft 6 kts 331°
2026-05-08 03:39 39.85417 -104.66232 5393 ft 19 kts 347°
2026-05-08 03:39 39.85553 -104.66237 5391 ft 19 kts
2026-05-08 03:39 39.85686 -104.66238 5390 ft 19 kts 358°
2026-05-08 03:40 39.85812 -104.66238 5387 ft 18 kts
2026-05-08 03:40 39.85936 -104.66235 5387 ft 17 kts 360°
2026-05-08 03:40 39.85985 -104.66243 5383 ft 6 kts 340°
2026-05-08 03:40 39.86015 -104.66309 5384 ft 14 kts 276°
2026-05-08 03:41 39.86018 -104.66447 5381 ft 10 kts 278°
2026-05-08 03:41 39.86078 -104.66501 5375 ft 13 kts 345°
2026-05-08 03:41 39.86123 -104.66587 5375 ft 12 kts 274°
2026-05-08 03:41 39.86126 -104.66697 5377 ft 12 kts 271°
2026-05-08 03:42 39.86128 -104.66803 5377 ft 12 kts 270°
2026-05-08 03:42 39.86128 -104.66891 5377 ft 6 kts 269°
2026-05-08 03:42 39.86137 -104.66942 5373 ft 6 kts 308°
2026-05-08 03:42 39.86177 -104.66950 5375 ft 6 kts
2026-05-08 03:43 39.86214 -104.66950 5374 ft 5 kts
2026-05-08 03:43 39.86239 -104.66950 5372 ft 1 kts
2026-05-08 03:43 39.86248 -104.66950 5373 ft 1 kts
2026-05-08 03:43 39.86250 -104.66950 5374 ft 0 kts